Ana Sayfa
METAR-TAF:

METAR-TAF

Havaalanları :

Ghanzi, Botsvana

Enlem: 21-42S, Boylam: 021-39E, yükseklik: 1131 m

METAR: eksik

Saat: 04:13 (02:13 UTC)

Tahmin

Rapor saat 12:00 UTC de 14 saat ve 13 dakika önce yapıldı.
Ayın 25'si saat 15 UTC'den ayın 25'si saat 24 UTC'ye kadar geçerli Tahmin
Rüzgar doğu/kuzeydoğudan 10 kt
Görüş mesafesi 10 km veya daha fazla
1500 m altında bulut yok ve kümülonimbus yok

TAF: FBGZ 251200Z 2515/2524 07010KT CAVOK

4.000'den fazla havaalanı için hava durumu gözlemleri ve tahminleri (METAR ve TAF raporları).

Kullanılabilir istasyonlar harita üzerinde sarı ve kırmızı noktalarla gösterilir.

İstasyonun adını görmek için fareyi noktanın üzerinde gezdirin.

Sonrasında hava gözlem ve tahminlerini görmek için tıklayın.

Haritayı değiştirmek için: yaklaştırmak için siyah artı işaretli yeşil düğmeye ve uzaklaştırmak için de eksi işaretli düğmeye hızla tıklayın; bitişik haritalar için yeşil okları kullanın.


METAR-TAF: